Location: Apeadero de Los Molinos-Guadarrama
(40.7091°N, 4.0689°W)
Time: 13:30:43
(UTC+00:00)

Ariane Rocket - Pass Details

Date: 14 May 2021
Orbit: 761 x 769 km, 98.7° (Epoch: 18 June)

Event Time Altitude Azimuth Distance (km) Brightness Sun altitude
Exits shadow 20:38:56 - 173° (S) 2,507 5.2 -12.5°
Reaches altitude 10° 20:39:30 10° 174° (S) 2,287 5.0 -12.6°
Maximum altitude 20:44:31 70° 258° (WSW) 813 3.2 -13.3°
Drops below altitude 10° 20:49:35 10° 342° (NNW) 2,307 6.4 -14.1°
Sets 20:51:55 0° 345° (NNW) 3,239 7.3 -14.4°
